Back to catalog

CZ-6A DEB

AliveSSO
NORAD 55195·DEBRIS·🇨🇳 China

Launched Nov 11, 2022 from Taiyuan Satellite Launch Center

Loading…

Next Passes (next 24 hours)

TLE

FreshSource: Space-Track

Epoch: Sep 14, 2026, 03:07 UTC

1 55195U 22151VL  26257.13007851  .00004150  00000-0  82613-3 0  9996
2 55195  98.6196 319.0798 0091204  33.1754 327.5118 14.60014164197610

Track CZ-6A DEB in real time with AllMySat

Download on the App Store